Tracking 25934 objects as of 10-Aug-2022
HD Live streaming from Space Station
objects crossing your sky now

ICEYE-X7

Track ICEYE-X7 now!
10-day predictions


NORAD ID: 46496
Int'l Code: 2020-068L
Perigee: 558.0 km
Apogee: 584.2 km
Inclination: 97.6 °
Period: 95.9 minutes
Semi major axis: 6942 km
RCS: Unknown
Launch date: September 28, 2020
Source: (FIN)
Launch site: PLESETSK MISSILE AND SPACE COMPLEX (PKMTR)
aabbcc
Your satellite tracking list
Your tracking list is empty




NASA's NSSDC Master Catalog

Two Line Element Set (TLE):
1 46496U 20068L   22221.87446670  .00000977  00000-0  81028-4 0  9992
2 46496  97.6449 158.4339 0018929 104.2260 256.1067 15.00954457102074
Source of the keplerian elements: AFSPC